Location: B?dimalle
(17.1788°N, 80.5377°E)
Time: 10:04:17
(UTC+00:00)

Tiros 1 despin weight - Pass Details

Date: 21 February 2026
Orbit: 556 x 593 km, 48.2° (Epoch: 10 March)

Event Time Altitude Azimuth Distance (km) Brightness Sun altitude
Rises 05:39:28 0° 204° (SSW) 2,776 ? 57.1°
Reaches altitude 10° 05:41:53 10° 196° (SSW) 1,872 ? 57.4°
Maximum altitude 05:45:48 35° 129° (SE) 919 ? 57.9°
Drops below altitude 10° 05:49:41 10° 63° (ENE) 1,852 ? 58.4°
Sets 05:52:03 0° 54° (NE) 2,743 ? 58.6°
